Temp
12 13 13 13 13 13 14 14 14 14 14 14 15 15 15 15 16 16 16 16 16 16 16 16 16 16 16 16 15 14 14 12 13 15 18 18 18 17 17 15 13 13 13 13 13
12 12 13 13 13 13 14 14 14 14 14 14 15 15 15 15 16 16 16 16 16 16 16 16 16 16 15 14 14 15 14 13 16 17 18 18 18 18 17 16 14 13 12 13 14
12 12 12 13 13 13 14 14 14 14 14 15 15 15 15 15 15 16 16 16 16 16 16 16 15 15 14 14 15 16 15 17 17 18 18 18 18 18 17 14 14 15 14 12 14
12 12 12 13 13 13 14 14 14 14 14 15 15 15 15 15 14 16 16 16 16 16 16 16 14 13 14 15 16 16 17 17 18 17 17 18 18 18 18 16 15 15 15 13 14
12 12 12 13 13 13 14 14 14 14 14 15 15 15 15 15 15 15 16 16 16 16 16 16 14 13 14 15 16 16 17 17 18 17 17 18 17 18 17 17 15 15 15 12 14
12 12 12 13 13 13 14 14 14 14 14 14 15 14 15 14 15 15 16 16 16 16 16 16 13 13 15 16 17 17 17 17 17 17 17 18 18 17 16 16 15 13 12 12 11
11 12 12 13 13 13 13 14 14 14 14 14 14 14 14 14 15 15 16 16 16 16 15 15 13 14 15 15 16 16 17 17 17 17 18 18 17 16 16 16 15 14 13 12 11
11 11 12 12 12 13 13 13 14 14 14 14 14 14 14 15 15 15 15 15 16 15 13 13 13 13 14 15 16 16 17 17 18 18 18 18 17 17 16 16 15 14 14 13 12
10 11 11 12 12 12 12 13 13 13 14 13 13 14 13 15 15 15 15 14 15 15 15 13 13 13 14 15 16 17 17 18 17 17 18 18 17 16 16 16 16 15 14 13 12
10 10 11 11 11 12 12 12 12 13 13 13 13 13 14 14 14 15 15 13 14 14 14 14 14 13 14 15 17 18 19 15 12 15 18 18 18 17 16 17 16 15 14 13 12
10 10 10 11 11 11 11 12 12 12 13 14 11 13 12 12 13 14 14 13 13 12 12 13 13 15 16 16 17 18 18 18 15 18 18 17 18 18 17 16 17 16 14 14 13
9 9 10 10 11 11 11 11 12 11 13 13 14 13 13 12 13 13 13 13 12 13 13 14 14 15 16 17 17 18 18 18 18 18 18 17 18 18 18 16 16 16 15 14 14
9 9 9 9 10 10 10 10 11 11 12 15 14 13 13 13 13 13 13 13 13 13 14 15 16 16 16 17 17 17 17 18 18 18 18 18 18 18 17 17 15 16 16 15 14
9 8 9 9 9 10 9 10 10 10 11 14 14 13 13 13 13 14 13 13 13 14 15 15 16 17 16 16 17 17 17 17 17 18 18 18 19 19 17 17 15 13 15 15 14
9 9 9 9 9 9 7 9 10 10 13 15 14 13 13 13 15 15 13 12 13 14 15 16 16 16 16 17 17 17 18 17 17 17 17 18 18 18 16 15 15 14 12 15 14
9 9 9 9 9 8 9 9 9 9 13 15 14 14 13 13 14 14 14 12 13 14 15 16 17 17 17 17 17 17 17 16 16 17 18 18 18 17 16 15 16 16 15 14 13
8 9 9 9 8 9 8 8 8 11 14 16 15 14 14 14 14 14 14 13 13 14 15 16 16 16 16 17 17 16 16 17 17 17 18 18 18 18 17 16 16 15 14 13 12
8 8 8 8 8 7 7 6 9 12 13 15 15 16 15 15 15 15 14 14 13 14 16 16 17 16 17 16 17 17 16 17 17 18 17 16 15 16 17 16 16 15 14 13 12
7 8 8 8 8 7 7 7 9 11 13 15 15 14 15 15 16 16 15 14 14 14 15 17 18 18 17 16 16 17 17 17 17 17 18 16 16 16 16 15 16 15 14 13 12
6 7 7 7 8 7 5 7 10 11 13 13 14 14 15 16 16 16 16 15 15 15 15 16 17 17 18 17 16 16 17 16 17 16 17 19 18 15 15 14 14 14 14 13 12
5 5 5 3 6 5 5 7 9 11 11 12 12 13 14 15 16 16 16 16 16 16 16 16 16 17 18 17 17 17 16 17 17 18 18 19 13 14 15 14 15 14 13 12 12
4 4 4 3 4 4 6 7 9 10 11 11 10 11 13 14 15 15 16 16 16 16 16 16 16 16 17 17 16 17 17 17 17 17 18 18 14 14 12 11 13 13 13 12 12
3 3 3 3 4 6 6 7 8 10 10 10 10 11 12 12 13 14 15 16 16 16 16 16 16 16 16 17 17 17 17 17 17 16 17 17 16 11 11 11 12 13 12 12 11
3 3 4 3 4 6 8 8 9 9 10 10 10 11 11 11 12 13 14 15 14 15 15 15 15 15 17 17 16 17 17 17 17 17 17 17 15 14 14 13 13 12 11 11 11
2 2 4 5 5 5 6 7 9 10 9 9 10 10 11 11 12 12 13 14 14 14 14 14 14 15 16 16 16 17 17 17 17 17 17 17 15 14 15 13 13 11 10 11 11
-1 -0 1 2 3 4 6 6 8 9 9 9 9 10 10 11 11 12 12 13 13 14 13 13 13 14 15 15 16 17 17 17 17 17 17 17 13 13 13 12 12 11 10 11 11
-1 -0 -1 1 2 4 6 7 7 7 9 9 9 9 10 10 11 11 12 12 12 12 13 13 13 13 14 15 16 17 17 17 17 17 17 16 14 12 11 11 12 10 9 10 10
Height
3160 3161 3162 3162 3163 3163 3163 3163 3163 3163 3163 3163 3163 3163 3163 3162 3162 3162 3161 3162 3161 3160 3159 3159 3159 3161 3162 3164 3167 3174 3176 3173 3172 3170 3167 3166 3166 3166 3168 3163 3168 3171 3169 3174 3173
3159 3160 3160 3161 3162 3162 3162 3162 3162 3162 3162 3162 3162 3162 3162 3162 3162 3162 3163 3162 3161 3160 3160 3160 3160 3161 3163 3166 3169 3175 3178 3179 3169 3168 3169 3169 3167 3168 3163 3166 3168 3170 3172 3173 3170
3158 3158 3159 3160 3160 3161 3161 3161 3161 3161 3161 3161 3161 3161 3161 3161 3161 3162 3161 3161 3161 3161 3161 3161 3161 3163 3165 3168 3172 3174 3171 3167 3167 3170 3170 3169 3168 3168 3159 3158 3169 3169 3166 3166 3168
3156 3157 3157 3158 3158 3159 3159 3159 3159 3160 3160 3160 3160 3160 3161 3161 3164 3160 3160 3161 3161 3162 3162 3161 3163 3165 3166 3169 3171 3173 3172 3169 3171 3170 3169 3169 3167 3167 3167 3160 3162 3164 3165 3165 3167
3154 3155 3155 3156 3156 3157 3157 3158 3157 3158 3158 3158 3159 3159 3159 3160 3159 3159 3160 3160 3161 3161 3162 3162 3164 3166 3168 3170 3171 3170 3170 3169 3168 3168 3168 3167 3168 3167 3164 3163 3162 3164 3164 3165 3165
3150 3151 3152 3153 3154 3154 3155 3156 3155 3155 3156 3157 3157 3157 3158 3159 3158 3158 3159 3159 3160 3160 3161 3162 3164 3168 3170 3171 3170 3168 3166 3165 3165 3166 3166 3166 3164 3162 3167 3167 3164 3163 3164 3166 3166
3148 3148 3149 3150 3150 3151 3152 3153 3153 3153 3154 3155 3155 3155 3156 3157 3155 3157 3157 3158 3159 3159 3160 3162 3165 3169 3170 3169 3168 3165 3165 3164 3165 3165 3164 3164 3162 3163 3164 3165 3167 3165 3166 3167 3166
3145 3145 3146 3147 3148 3148 3149 3149 3150 3150 3151 3152 3152 3152 3153 3153 3153 3154 3156 3157 3157 3158 3160 3163 3163 3165 3167 3168 3165 3164 3162 3162 3161 3162 3163 3163 3161 3155 3156 3159 3162 3166 3166 3165 3165
3142 3143 3143 3144 3145 3145 3146 3146 3147 3147 3148 3149 3150 3150 3151 3151 3152 3152 3154 3155 3156 3157 3158 3160 3161 3162 3166 3166 3164 3160 3157 3155 3156 3155 3161 3160 3157 3153 3150 3149 3153 3156 3159 3161 3159
3139 3140 3141 3142 3143 3143 3144 3144 3144 3144 3146 3146 3147 3150 3148 3149 3148 3149 3151 3153 3154 3155 3156 3157 3158 3160 3162 3163 3159 3153 3153 3156 3165 3152 3161 3158 3154 3152 3150 3155 3156 3154 3160 3163 3163
3136 3137 3138 3139 3140 3142 3143 3144 3146 3143 3142 3144 3145 3146 3147 3147 3145 3147 3148 3150 3152 3154 3155 3156 3158 3158 3159 3160 3159 3155 3153 3155 3148 3155 3159 3157 3152 3154 3155 3152 3152 3151 3142 3153 3157
3133 3134 3135 3136 3138 3139 3140 3141 3140 3141 3138 3139 3139 3141 3145 3144 3144 3144 3146 3149 3150 3152 3154 3158 3154 3155 3157 3158 3157 3155 3153 3153 3155 3155 3154 3151 3151 3154 3151 3152 3151 3152 3152 3155 3147
3130 3131 3132 3134 3135 3137 3137 3138 3139 3138 3135 3134 3134 3136 3139 3141 3142 3144 3143 3145 3148 3151 3153 3153 3153 3152 3154 3155 3156 3155 3154 3152 3151 3149 3148 3148 3149 3148 3147 3146 3153 3149 3152 3152 3153
3125 3126 3128 3130 3133 3134 3135 3134 3136 3136 3134 3129 3130 3130 3135 3136 3135 3139 3139 3145 3147 3148 3150 3150 3151 3151 3152 3152 3154 3153 3153 3153 3152 3151 3147 3147 3142 3144 3142 3147 3149 3137 3152 3152 3155
3120 3121 3122 3125 3128 3131 3131 3133 3134 3136 3136 3125 3128 3127 3130 3131 3135 3132 3137 3139 3142 3146 3149 3146 3148 3148 3149 3150 3151 3152 3152 3151 3151 3150 3149 3147 3145 3144 3144 3146 3146 3148 3131 3149 3152
3115 3116 3118 3119 3123 3127 3127 3131 3134 3139 3127 3124 3122 3124 3128 3127 3132 3133 3135 3138 3142 3143 3144 3143 3145 3145 3146 3147 3149 3150 3151 3151 3151 3149 3144 3143 3143 3139 3133 3146 3144 3143 3149 3149 3150
3110 3112 3113 3115 3118 3119 3123 3129 3135 3128 3122 3121 3120 3122 3124 3126 3128 3131 3132 3133 3135 3139 3139 3140 3140 3142 3144 3144 3146 3148 3149 3147 3147 3142 3138 3138 3137 3136 3136 3139 3141 3144 3147 3148 3147
3105 3107 3108 3111 3113 3116 3120 3127 3125 3117 3117 3117 3116 3118 3120 3122 3123 3126 3129 3130 3132 3134 3134 3135 3136 3137 3138 3140 3141 3142 3145 3143 3139 3135 3140 3140 3136 3134 3133 3136 3139 3142 3145 3145 3144
3098 3101 3103 3106 3109 3113 3116 3118 3115 3116 3115 3115 3116 3118 3118 3119 3120 3121 3124 3126 3128 3130 3133 3130 3129 3129 3131 3135 3139 3139 3139 3142 3139 3134 3133 3133 3133 3133 3136 3138 3139 3142 3148 3148 3145
3092 3095 3098 3100 3103 3107 3110 3108 3112 3113 3115 3114 3113 3115 3115 3113 3115 3117 3117 3121 3123 3126 3129 3129 3128 3127 3127 3132 3134 3135 3138 3138 3137 3135 3131 3124 3129 3129 3130 3138 3142 3145 3147 3148 3145
3089 3093 3095 3096 3100 3102 3100 3104 3107 3108 3113 3114 3114 3114 3112 3110 3111 3112 3114 3117 3118 3121 3124 3127 3129 3127 3126 3127 3130 3132 3132 3132 3132 3130 3126 3123 3135 3135 3135 3137 3140 3146 3146 3146 3144
3086 3092 3092 3093 3097 3097 3097 3101 3106 3107 3110 3111 3112 3111 3110 3110 3109 3109 3111 3113 3114 3116 3119 3123 3125 3125 3122 3123 3126 3125 3126 3129 3129 3128 3125 3124 3128 3130 3135 3131 3131 3141 3143 3144 3144
3082 3088 3090 3091 3092 3094 3096 3098 3101 3104 3105 3107 3108 3109 3110 3109 3111 3109 3110 3110 3109 3112 3116 3118 3120 3122 3122 3121 3120 3120 3122 3124 3126 3127 3124 3126 3130 3130 3126 3123 3119 3134 3142 3143 3141
3081 3087 3088 3087 3088 3091 3093 3094 3095 3098 3100 3103 3104 3106 3107 3108 3109 3109 3109 3108 3109 3112 3112 3114 3116 3118 3116 3117 3117 3118 3118 3119 3120 3121 3122 3121 3122 3127 3128 3123 3127 3136 3142 3141 3138
3079 3083 3084 3084 3086 3085 3087 3090 3090 3093 3095 3098 3100 3101 3103 3105 3106 3106 3108 3107 3108 3110 3112 3115 3115 3115 3113 3114 3114 3113 3114 3114 3115 3115 3118 3119 3118 3124 3124 3126 3133 3138 3139 3138 3138
3076 3076 3073 3075 3078 3079 3081 3084 3087 3088 3092 3093 3095 3097 3100 3100 3102 3104 3106 3106 3105 3107 3109 3112 3112 3113 3111 3111 3110 3110 3110 3110 3110 3113 3114 3115 3114 3121 3124 3126 3127 3132 3136 3136 3136
3069 3072 3071 3073 3076 3079 3080 3081 3083 3086 3086 3089 3092 3094 3095 3097 3099 3100 3102 3101 3103 3104 3105 3107 3109 3111 3109 3109 3107 3105 3107 3107 3108 3111 3112 3110 3112 3115 3120 3126 3131 3132 3133 3134 3133
Wind_Speed
6 5 5 4 3 3 2 2 3 4 4 4 4 5 6 6 5 4 4 4 4 2 2 4 7 13 15 13 7 7 10 13 5 7 6 3 9 7 2 11 14 13 10 1 8
7 7 6 6 5 4 4 4 4 5 5 5 5 5 6 6 7 5 5 4 4 3 1 4 7 10 12 7 9 7 5 3 4 7 9 8 8 9 6 6 11 4 5 6 12
9 8 8 7 7 7 6 6 6 5 6 6 6 5 5 4 7 6 5 5 3 3 1 5 8 8 10 11 10 10 17 12 8 6 8 10 10 10 5 8 16 5 4 2 11
10 10 9 9 9 9 8 8 7 7 6 7 6 6 4 2 2 3 4 5 4 2 1 4 6 8 9 11 10 14 9 11 10 9 9 13 14 11 11 14 12 9 5 3 8
11 11 11 11 11 10 10 10 9 9 8 7 7 5 5 4 9 5 5 5 6 6 3 5 7 8 11 9 11 14 14 14 11 12 12 13 11 13 8 8 8 7 3 5 10
13 13 13 12 12 12 11 11 11 10 10 9 9 7 6 4 10 8 6 6 7 8 5 5 7 8 8 12 15 16 13 17 16 16 12 10 7 12 8 4 2 2 7 5 7
15 14 14 14 13 13 13 12 12 12 11 11 11 10 9 11 11 8 6 6 6 7 5 6 10 9 9 10 12 19 21 20 16 16 15 8 10 7 9 9 7 8 11 11 12
16 15 15 15 15 14 14 13 12 13 12 12 12 12 11 10 12 10 8 7 5 6 8 11 11 14 14 12 15 16 19 20 18 22 10 8 7 11 13 13 8 9 11 13 12
16 15 15 15 15 14 14 12 12 12 12 12 13 13 9 13 14 13 10 9 9 9 11 11 13 12 10 15 17 18 24 23 7 5 9 7 5 7 11 13 14 13 13 12 13
16 15 14 14 14 14 14 11 11 11 11 9 10 9 12 8 13 16 14 14 10 10 10 12 12 11 15 17 20 20 19 7 14 25 7 8 9 5 9 8 9 14 12 11 11
15 15 14 14 13 12 12 11 10 13 14 11 5 12 6 9 13 13 12 12 11 11 13 11 13 17 16 17 17 23 22 17 12 1 9 10 8 9 9 8 11 15 20 13 8
16 16 15 14 13 12 12 9 15 16 18 14 17 19 16 17 11 12 15 16 16 15 13 14 18 17 16 17 19 19 20 19 14 12 10 12 13 13 16 20 7 11 10 5 4
18 17 16 15 14 14 12 15 13 15 22 20 19 19 18 19 18 16 18 16 16 16 16 17 9 9 17 18 18 18 17 17 16 15 11 15 18 19 15 15 15 8 6 4 6
21 20 19 17 17 13 10 12 9 10 13 20 15 20 20 18 21 20 24 20 17 18 17 20 18 19 11 19 16 18 14 14 15 15 18 12 17 19 12 8 11 20 9 8 8
21 21 22 20 19 12 15 9 4 2 6 3 17 12 14 22 9 15 26 21 22 18 15 21 16 19 21 14 14 18 11 10 11 17 18 20 18 4 8 8 12 13 17 4 8
18 16 16 18 18 15 16 9 7 5 11 12 14 12 18 19 15 6 26 21 19 20 20 20 15 15 16 18 15 14 15 12 15 18 19 21 21 16 4 15 3 7 2 10 8
20 18 17 15 13 16 16 12 7 14 7 13 13 11 16 17 19 16 23 27 28 22 24 21 22 17 14 15 16 15 15 15 14 14 14 17 25 22 16 10 7 10 9 10 14
23 21 18 14 16 15 15 12 15 9 24 3 7 13 18 15 20 19 20 27 27 25 17 21 21 22 22 20 19 21 18 21 15 7 4 7 9 18 6 8 3 8 11 13 12
24 22 19 15 14 16 22 23 17 19 13 13 17 18 16 18 20 20 21 25 25 28 27 20 23 12 22 19 18 17 20 21 25 29 14 18 21 13 11 7 3 9 12 11 14
21 20 19 15 15 22 25 28 18 20 13 15 14 17 18 19 18 19 22 19 23 26 24 23 20 14 14 17 18 21 17 14 21 16 16 15 12 15 12 10 5 9 13 11 16
14 5 6 19 12 25 29 26 21 21 13 14 12 16 18 21 17 23 22 19 17 23 24 22 21 16 16 19 19 19 22 22 18 21 14 11 6 12 10 20 11 12 14 15 17
11 6 13 13 15 21 26 24 19 19 18 20 19 18 18 16 16 14 18 21 18 18 25 21 16 23 18 16 15 20 20 23 20 19 23 16 5 5 3 9 28 16 14 14 13
11 11 11 14 20 21 21 24 23 22 19 19 19 18 17 16 14 18 19 11 3 18 19 22 19 20 18 18 18 19 20 21 21 24 23 13 5 11 4 7 23 17 14 14 16
9 4 13 15 20 21 20 23 24 24 23 20 18 19 17 19 18 15 17 14 12 13 12 13 15 20 24 17 10 15 17 19 23 23 24 25 11 2 11 5 3 11 14 18 17
3 7 9 13 14 21 23 19 20 25 22 22 21 21 19 20 20 21 19 17 13 14 21 16 20 20 25 19 15 18 22 20 23 26 21 21 10 21 17 26 18 11 16 19 14
4 10 13 16 13 11 18 26 21 17 26 23 23 19 20 20 21 18 18 19 16 17 16 19 22 19 23 21 21 18 16 12 16 19 25 21 12 11 10 6 18 21 22 15 11
20 19 20 17 12 12 14 16 25 21 18 24 18 20 21 21 21 18 18 16 18 13 14 22 21 22 24 21 21 24 18 19 21 19 18 12 4 17 15 7 19 16 13 10 12
Wind_Direction
240 249 258 265 266 270 284 298 316 317 314 310 309 304 305 310 312 320 331 352 345 324 224 195 193 183 191 196 218 277 331 10 50 208 9 34 359 32 241 180 59 52 49 319 14
243 246 249 256 260 262 273 284 293 302 304 306 307 301 300 299 298 293 296 310 345 355 205 178 179 187 200 237 248 253 107 338 282 333 332 330 337 342 302 252 359 296 92 320 14
246 250 250 251 256 258 263 271 280 286 292 293 299 297 297 305 300 286 279 288 309 346 147 175 163 190 234 248 249 241 242 324 342 305 319 328 326 335 318 92 345 347 124 136 6
253 253 254 255 256 261 265 266 269 276 279 282 285 292 287 247 85 321 307 270 266 316 261 138 177 218 241 252 256 252 273 267 288 296 310 317 323 331 330 7 33 50 352 67 4
260 259 259 259 259 262 266 267 267 269 271 271 273 274 277 254 257 278 286 274 252 280 279 167 192 222 245 265 265 262 267 272 277 284 295 316 324 313 1 0 356 313 23 171 346
263 263 262 261 264 265 267 268 269 268 266 265 263 262 251 254 260 275 274 272 260 265 265 202 204 226 243 272 265 263 271 276 269 279 283 297 294 296 278 68 100 160 162 163 194
262 263 263 264 267 268 268 268 268 268 264 261 259 255 254 245 268 259 262 262 263 257 251 222 207 235 261 276 270 262 261 273 271 273 267 272 291 334 334 153 181 174 169 183 199
263 265 267 266 264 264 267 270 271 271 268 261 256 255 252 255 254 259 254 252 266 259 220 242 223 243 233 261 266 272 257 262 263 277 249 252 255 309 146 155 184 192 184 194 197
263 261 263 265 268 270 268 269 270 268 266 260 255 257 258 253 255 254 250 238 248 245 236 224 232 237 246 253 267 258 253 253 269 189 247 249 232 201 175 151 222 186 197 198 190
267 266 264 263 263 265 268 268 269 266 260 255 259 260 268 271 256 244 240 226 240 239 242 236 242 232 234 231 247 259 273 265 332 226 212 261 278 196 259 216 236 223 183 213 216
263 265 267 267 268 265 267 271 264 286 252 225 253 196 287 221 242 240 234 215 220 222 225 261 225 226 231 239 253 275 290 310 232 276 276 283 286 285 267 212 233 230 211 179 194
262 265 266 268 270 270 268 268 264 265 263 242 235 243 234 241 245 231 223 213 209 219 223 221 240 237 242 247 254 267 281 285 285 279 270 294 289 288 292 244 298 258 241 226 295
264 264 264 266 268 266 268 266 276 278 281 250 251 241 228 232 230 231 220 211 212 223 221 228 234 246 239 243 250 258 265 276 280 296 265 278 277 270 249 268 251 201 252 266 243
265 265 264 264 268 276 289 267 274 285 293 269 219 230 214 225 242 209 238 208 210 230 230 239 247 246 254 243 241 254 253 261 272 279 278 285 291 280 199 251 180 283 221 206 217
263 262 261 258 259 252 236 258 253 263 284 139 192 210 214 212 253 226 219 211 220 225 229 241 239 242 239 245 238 244 253 261 262 268 273 269 272 43 98 173 209 287 258 154 196
260 259 260 256 251 241 254 233 190 225 240 208 204 229 208 214 217 215 201 217 223 231 238 244 236 242 242 241 240 237 247 250 267 265 263 255 258 240 298 221 103 108 167 179 178
259 259 260 257 230 231 224 184 215 229 230 226 212 221 212 220 219 215 202 213 211 219 234 236 239 238 239 234 227 229 239 238 247 239 246 285 241 259 144 122 94 149 169 175 182
259 259 258 253 240 211 188 191 228 235 237 258 212 222 218 219 218 215 219 219 221 221 237 224 238 228 231 229 230 225 236 237 247 237 273 270 347 296 169 200 171 159 170 180 208
261 259 256 249 235 216 190 210 222 227 253 243 241 241 242 239 232 217 222 227 225 219 233 250 248 237 226 220 227 233 226 241 263 279 252 207 238 183 177 134 146 153 174 183 222
267 262 266 244 221 205 207 222 233 233 267 259 249 237 242 239 220 229 222 231 230 225 228 240 270 264 226 217 232 238 231 237 242 263 275 259 227 156 133 126 145 169 181 178 209
265 270 268 196 218 201 218 227 238 221 257 236 243 246 254 248 238 231 234 235 229 228 225 233 247 260 242 218 233 226 238 242 249 236 250 271 58 0 236 304 210 211 185 179 216
245 198 225 218 219 222 230 232 233 235 247 249 245 253 260 254 261 245 239 242 235 222 221 222 236 242 254 232 239 238 234 229 242 249 262 280 190 203 257 290 193 195 181 174 219
224 199 253 221 230 233 243 240 239 236 237 236 246 240 244 251 264 239 240 257 268 207 226 225 222 247 249 253 221 219 232 229 233 263 279 290 196 141 114 299 183 173 178 173 208
215 222 218 245 235 233 242 244 243 234 236 237 241 241 237 240 239 243 243 243 228 208 237 223 242 223 242 235 316 227 237 241 242 233 247 251 187 341 249 252 74 155 175 187 209
163 226 280 225 255 244 240 242 243 232 233 233 238 233 233 238 236 233 237 244 230 237 239 240 247 245 244 260 267 248 245 229 244 240 252 273 251 254 248 218 224 226 191 199 208
275 267 242 233 261 260 235 235 236 241 231 234 235 231 230 236 233 233 233 243 248 233 229 225 236 245 253 258 248 240 247 250 238 242 248 262 158 178 188 311 180 206 218 201 196
243 237 242 236 261 257 241 241 239 240 239 229 240 232 233 242 236 232 232 244 239 270 220 219 226 235 251 247 254 265 246 254 249 255 268 292 162 167 116 106 200 199 197 189 217